Location: Podia
(1.5569°N, 32.3469°E)
Time: 10:14:48
(UTC+00:00)

N. Korean satellite - Pass Details

Date: 18 August 2020
Orbit: 455 x 503 km, 97.2° (Epoch: 22 September)

Event Time Altitude Azimuth Distance (km) Brightness Sun altitude
Rises 03:15:22 0° 3° (N) 2,564 10.5 -9.2°
Reaches altitude 10° 03:17:28 10° 358° (N) 1,690 9.5 -8.7°
Maximum altitude 03:21:01 52° 281° (W) 627 6.8 -7.8°
Drops below altitude 10° 03:24:37 10° 204° (SSW) 1,710 9.0 -6.9°
Sets 03:26:44 0° 199° (SSW) 2,598 9.9 -6.4°
